GW5324 Weather Reports


Display with metric or nautical units.
time (UTC)temp
F
wind
direction
speed
MPH
gust
MPH
rain 1hr
in
rain 24hr
in
rain mn
in
humidity
%
barometer
mb
20260831131524 52 128 0.0 0.0 0.00 0.00 0.00 88 1012.3
20260831130030 53 128 0.0 0.0 0.00 0.00 0.00 88 1012.2
20260831124535 53 128 0.0 0.0 0.00 0.00 0.00 88 1012.3
20260831123019 53 128 0.0 0.0 0.00 0.00 0.00 88 1012.4
20260831121533 53 128 0.0 0.0 0.00 0.00 0.00 87 1012.5
20260831120034 54 128 0.0 0.0 0.00 0.00 0.00 87 1012.6
20260831114530 53 128 0.0 0.0 0.00 0.00 0.00 87 1012.7
20260831113016 54 130 0.0 0.0 0.00 0.00 0.00 85 1012.8
20260831111540 55 0.0 0.0 0.00 0.00 0.00 85 1012.7
20260831110037 54 0.0 0.0 0.00 0.00 0.00 85 1013.1
20260831104555 54 125 0.0 0.0 0.00 0.00 0.00 84 1013.0
20260831103031 55 125 0.0 0.0 0.00 0.00 0.00 83 1013.0
20260831101518 55 125 0.0 0.0 0.00 0.00 0.00 84 1013.2
20260831100027 55 115 0.0 0.0 0.00 0.00 0.00 83 1013.2
20260831094541 56 118 0.0 0.0 0.00 0.00 0.00 83 1013.3
20260831093036 56 118 0.0 0.0 0.00 0.00 0.00 82 1013.6
20260831091532 56 118 0.0 0.0 0.00 0.00 0.00 81 1013.7
20260831090031 56 107 0.0 1.0 0.00 0.00 0.00 80 1013.7
20260831084537 57 101 0.0 0.0 0.00 0.00 0.00 79 1013.8
20260831083042 58 101 0.0 0.0 0.00 0.00 0.00 79 1014.0
20260831081534 58 102 0.0 2.0 0.00 0.00 0.00 79 1014.2
20260831080052 59 105 1.0 3.0 0.00 0.00 0.00 77 1014.2
20260831074524 60 327 0.0 1.0 0.00 0.00 0.00 76 1014.1
20260831073033 61 327 0.0 2.0 0.00 0.00 0.00 75 1014.4
20260831071532 62 319 1.0 4.0 0.00 0.00 0.00 73 1014.6
20260831070007 62 277 2.0 3.0 0.00 0.00 0.00 73 1014.7
20260831064506 62 330 0.0 2.0 0.00 0.00 0.00 72 1014.6
20260831063009 62 330 0.0 0.0 0.00 0.00 0.00 72 1015.0
20260831061508 63 330 1.0 3.0 0.00 0.00 0.00 71 1015.0
20260831060006 63 288 0.0 2.0 0.00 0.00 0.00 71 1015.2
20260831054508 64 306 1.0 2.0 0.00 0.00 0.00 70 1015.3
20260831053008 64 268 0.0 3.0 0.00 0.00 0.00 68 1015.4
20260831051508 65 264 1.0 3.0 0.00 0.00 0.00 67 1015.5
20260831050009 65 264 2.0 4.0 0.00 0.00 0.00 67 1015.6
20260831044517 65 298 2.0 6.0 0.00 0.00 0.00 66 1015.7
20260831043010 66 275 2.0 4.0 0.00 0.00 0.00 64 1015.6
20260831041513 66 257 1.0 3.0 0.00 0.00 0.00 63 1015.8
20260831040014 67 261 1.0 4.0 0.00 0.00 0.00 61 1015.8
20260831034517 67 291 1.0 4.0 0.00 0.00 0.00 61 1015.8
20260831033012 68 284 2.0 7.0 0.00 0.00 0.00 59 1015.8
20260831031518 68 271 1.0 5.0 0.00 0.00 0.00 57 1015.8
20260831030011 69 344 3.0 8.0 0.00 0.00 0.00 55 1015.6
20260831024512 69 336 3.0 6.0 0.00 0.00 0.00 55 1015.8
20260831023014 70 269 2.0 8.0 0.00 0.00 0.00 54 1015.8
20260831021521 71 352 4.0 8.0 0.00 0.00 0.00 52 1016.0
20260831020013 71 303 2.0 9.0 0.00 0.00 0.00 52 1015.8
20260831014509 72 309 6.0 9.0 0.00 0.00 0.00 50 1016.1
20260831013022 72 319 4.0 9.0 0.00 0.00 0.00 49 1016.1
20260831011519 73 324 5.0 9.0 0.00 0.00 0.00 48 1016.3
20260831010016 73 244 5.0 9.0 0.00 0.00 0.00 48 1016.6
20260831004512 73 323 3.0 8.0 0.00 0.00 0.00 47 1016.7
20260831003014 73 317 3.0 10.0 0.00 0.00 0.00 47 1016.7
20260831001515 73 315 5.0 12.0 0.00 0.00 0.00 47 1016.8
20260831000033 73 322 4.0 12.0 0.00 0.00 0.00 47 1017.0
20260830234517 73 253 6.0 11.0 0.00 0.00 0.00 45 1017.0
20260830233021 73 292 5.0 9.0 0.00 0.00 0.00 45 1017.2
20260830231515 73 265 4.0 12.0 0.00 0.00 0.00 46 1017.3
20260830230021 72 279 7.0 11.0 0.00 0.00 0.00 46 1017.5
20260830224519 72 277 8.0 11.0 0.00 0.00 0.00 46 1017.7
20260830223019 71 261 4.0 9.0 0.00 0.00 0.00 46 1017.9
20260830221513 71 321 6.0 13.0 0.00 0.00 0.00 47 1018.3
20260830220021 72 253 3.0 8.0 0.00 0.00 0.00 45 1018.5
20260830214503 71 293 5.0 10.0 0.00 0.00 0.00 47 1018.8
20260830213021 71 263 3.0 8.0 0.00 0.00 0.00 48 1018.7
20260830211526 69 340 3.0 9.0 0.00 0.00 0.00 48 1019.2
20260830210026 70 324 3.0 10.0 0.00 0.00 0.00 47 1019.4
20260830204528 68 345 3.0 6.0 0.00 0.00 0.00 48 1019.6
20260830203003 68 300 1.0 8.0 0.00 0.00 0.00 51 1019.9
20260830201507 67 90 2.0 8.0 0.00 0.00 0.00 52 1020.0
20260830200014 69 53 1.0 6.0 0.00 0.00 0.00 50 1019.9
20260830194526 66 317 3.0 11.0 0.00 0.00 0.00 55 1020.1
20260830193007 67 292 4.0 6.0 0.00 0.00 0.00 55 1020.2
20260830191507 64 264 2.0 6.0 0.00 0.00 0.00 60 1020.5
20260830190027 64 0.0 0.0 0.00 0.00 0.00 61 1020.5
20260830184523 63 345 5.0 9.0 0.00 0.00 0.00 60 1020.8
20260830183027 64 336 3.0 9.0 0.00 0.00 0.00 62 1020.7
20260830181528 63 335 4.0 8.0 0.00 0.00 0.00 62 1020.6
20260830180013 64 59 2.0 6.0 0.00 0.00 0.00 62 1020.6
20260830174527 62 1.0 3.0 0.00 0.00 0.00 67 1020.7
20260830173023 62 306 3.0 8.0 0.00 0.00 0.00 68 1020.7
20260830171527 61 304 1.0 7.0 0.00 0.00 0.00 70 1020.8
20260830170028 61 5 2.0 5.0 0.00 0.00 0.00 70 1020.7
20260830164550 60 9 2.0 3.0 0.00 0.00 0.00 74 1020.6
20260830163029 60 42 1.0 4.0 0.00 0.00 0.00 74 1020.8
20260830161526 59 54 0.0 4.0 0.00 0.00 0.00 78 1021.1
20260830160006 58 28 1.0 3.0 0.00 0.00 0.00 79 1021.2
20260830154511 58 71 0.0 3.0 0.00 0.00 0.00 80 1021.2
20260830153032 57 62 1.0 3.0 0.00 0.00 0.00 81 1021.1
20260830151528 56 76 1.0 3.0 0.00 0.00 0.00 82 1021.4
20260830150030 55 80 3.0 5.0 0.00 0.00 0.00 83 1021.3
20260830144530 55 88 2.0 3.0 0.00 0.00 0.00 83 1021.5
20260830143034 55 88 1.0 2.0 0.00 0.00 0.00 83 1021.2
20260830141538 54 88 0.0 2.0 0.00 0.00 0.00 84 1021.2
20260830140031 53 88 2.0 3.0 0.00 0.00 0.00 84 1021.1
20260830134541 53 69 2.0 3.0 0.00 0.00 0.00 84 1021.1
20260830133031 53 104 0.0 2.0 0.00 0.00 0.00 84 1020.9